Location: Ash Swamp
(41.5170°N, 74.6157°W)
Time: 17:19:55
(UTC+00:00)

Cosmos 2242 Rocket - Pass Details

Date: 14 July 2020
Orbit: 619 x 651 km, 82.5° (Epoch: 05 August)

Event Time Altitude Azimuth Distance (km) Brightness Sun altitude
Rises 06:34:57 0° 344° (NNW) 2,972 7.8 -23.5°
Reaches altitude 10° 06:37:19 10° 337° (NNW) 2,053 6.8 -23.3°
Enters shadow 06:41:16 40° 279° (W) 953 4.3 -23.0°
